DW2973 Weather Reports


time (UTC)temp
C
wind
direction
speed
KPH
gust
KPH
rain 1hr
cm
rain 24hr
cm
rain mn
cm
humidity
%
barometer
mb
20260507094552 13 325 0.0 0.0 0.00 0.00 0.00 64 1015.8
20260507093037 13 310 1.6 0.0 0.00 0.00 0.00 71 1015.7
20260507091536 12 360 1.6 0.0 0.00 0.00 0.00 70 1015.7
20260507090033 13 310 0.0 0.0 0.00 0.00 0.00 72 1015.7
20260507084538 12 18 0.0 0.0 0.00 0.00 0.00 72 1015.5
20260507083031 12 332 0.0 0.0 0.00 0.00 0.00 72 1015.4
20260507081531 12 318 0.0 0.0 0.00 0.00 0.00 75 1015.1
20260507080024 11 311 0.0 0.0 0.00 0.00 0.00 76 1015.0
20260507074522 11 307 0.0 0.0 0.00 0.00 0.00 79 1015.0
20260507073019 10 279 0.0 0.0 0.00 0.00 0.00 80 1014.9
20260507071519 10 315 0.0 0.0 0.00 0.00 0.00 81 1014.9
20260507070024 10 220 0.0 0.0 0.00 0.00 0.00 83 1014.7
20260507064515 10 218 0.0 0.0 0.00 0.00 0.00 86 1014.7
20260507063010 9 252 0.0 0.0 0.00 0.00 0.00 90 1014.6
20260507061506 8 252 0.0 0.0 0.00 0.00 0.00 92 1014.5
20260507060001 7 252 0.0 0.0 0.00 0.00 0.00 93 1014.4
20260507054558 6 252 0.0 0.0 0.00 0.00 0.00 93 1014.4
20260507053122 6 252 0.0 0.0 0.00 0.00 0.00 93 1014.4
20260507051555 5 196 0.0 0.0 0.00 0.00 0.00 92 1014.2
20260507050053 5 196 0.0 0.0 0.00 0.00 0.00 92 1014.2
20260507044603 5 196 0.0 0.0 0.00 0.00 0.00 92 1014.0
20260507043051 4 196 0.0 0.0 0.00 0.00 0.00 92 1014.0
20260507041553 4 196 0.0 0.0 0.00 0.00 0.00 92 1013.9
20260507040049 3 196 0.0 0.0 0.00 0.00 0.00 91 1013.9
20260507034548 3 196 0.0 0.0 0.00 0.00 0.00 91 1013.8
20260507033100 3 196 0.0 0.0 0.00 0.00 0.00 91 1013.7
20260507031557 3 196 0.0 0.0 0.00 0.00 0.00 91 1013.6
20260507024602 3 196 0.0 0.0 0.00 0.00 0.00 90 1013.4
20260507023042 3 196 0.0 0.0 0.00 0.00 0.00 90 1013.3
20260507021550 3 196 0.0 0.0 0.00 0.00 0.00 89 1013.2
20260507020053 3 196 0.0 0.0 0.00 0.00 0.00 89 1013.2
20260507014550 3 196 0.0 0.0 0.00 0.00 0.00 89 1013.2
20260507013042 3 196 0.0 0.0 0.00 0.00 0.00 88 1013.1
20260507011544 3 196 0.0 0.0 0.00 0.00 0.00 88 1013.1
20260507010041 4 196 0.0 0.0 0.00 0.00 0.00 87 1013.0
20260507004533 4 196 0.0 0.0 0.00 0.00 0.00 87 1013.0
20260507003030 5 196 0.0 0.0 0.00 0.00 0.00 87 1013.0
20260507001534 5 196 0.0 0.0 0.00 0.00 0.00 86 1013.0
20260507000028 5 196 0.0 0.0 0.00 0.00 0.00 86 1012.9
20260506234526 5 196 0.0 0.0 0.00 0.00 0.00 85 1012.8
20260506233025 5 196 0.0 0.0 0.00 0.00 0.00 85 1012.8
20260506231523 5 196 0.0 0.0 0.00 0.00 0.00 84 1012.8
20260506230023 5 196 0.0 0.0 0.00 0.00 0.00 84 1012.7
20260506224521 6 196 0.0 0.0 0.00 0.00 0.00 83 1012.7
20260506223020 6 196 0.0 0.0 0.00 0.00 0.00 83 1012.6
20260506221517 6 196 0.0 0.0 0.00 0.00 0.00 82 1012.5
20260506220015 6 196 0.0 0.0 0.00 0.00 0.00 81 1012.6
20260506214515 6 196 0.0 0.0 0.00 0.00 0.00 80 1012.5
20260506213014 6 196 0.0 0.0 0.00 0.00 0.00 80 1012.4
20260506211519 6 196 0.0 0.0 0.00 0.00 0.00 79 1012.4
20260506210016 7 196 0.0 0.0 0.00 0.00 0.00 77 1012.3
20260506204510 7 196 0.0 0.0 0.00 0.00 0.00 75 1012.1
20260506203009 8 196 0.0 0.0 0.00 0.00 0.00 74 1012.1
20260506201509 8 196 0.0 0.0 0.00 0.00 0.00 72 1011.9
20260506200006 8 190 0.0 0.0 0.00 0.00 0.00 70 1011.8